AirNav   ATP
 
 1362 users online  

AL93 Big Sky Airport
Huntsville, Alabama, USA

GOING TO HUNTSVILLE?


FAA INFORMATION EFFECTIVE 29 MARCH 2018

Location

FAA Identifier: AL93
Lat/Long: 34-53-08.3160N / 086-42-35.9920W
34-53.138600N / 086-42.599867W
34.8856433 / -86.7099978
(estimated)
Elevation: 830 ft. / 253 m (estimated)
Variation: 01W (1990)
From city: 12 miles NW of HUNTSVILLE, AL
Time zone: UTC -5 (UTC -6 during Standard Time)
Zip code: 35773

Airport Operations

Airport use: Private use. Permission required prior to landing
Activation date: 02/1992
Control tower: no
ARTCC: MEMPHIS CENTER
FSS: ANNISTON FLIGHT SERVICE STATION
Attendance: IREG
Wind indicator: yes
Segmented circle: no

Airport Communications

WX AWOS-3PT at MDQ (8 nm E): 120.000 (256-829-1242)
WX AWOS-3 at FYM (13 nm NE): 135.275 (931-433-5916)
WX ASOS at HSV (15 nm S): PHONE 256-772-8074
WX ASOS at DCU (18 nm SW): 118.375 (256-350-4270)

Nearby radio navigation aids

VOR radial/distance  VOR name  Freq  Var
RQZr323/6.5ROCKET VORTAC112.2002E
DCUr039/18.2DECATUR VOR/DME112.8001W
MSLr073/40.0MUSCLE SHOALS VORTAC116.5001E

 
NDB name  Hdg/Dist  Freq  Var  ID
REDSTONE358/11.328704WHUA .... ..- .-
BOILING FORK244/36.126303WBGF -... --. ..-.

Airport Services

Runway Information

Runway 18/36

Dimensions: 2450 x 80 ft. / 747 x 24 m
Surface: turf, in good condition
RUNWAY 18  RUNWAY 36
Traffic pattern: leftright
Displaced threshold: no400 ft.
RY 36 DSPLCD THLD MKD WITH CONES.
Obstructions: none60 ft. trees, 200 ft. from runway

Airport Ownership and Management from official FAA records

Ownership: Privately-owned
Owner: CHRISTOPHER A BARBER
437 WILL RABY RD
TONEY, AL 35773
Phone 256-842-9416
Manager: CHRISTOPHER A BARBER
437 WILL RABY RD
TONEY, AL 35773
Phone 256-842-9416

Airport Operational Statistics

Aircraft based on the field: 3
Single engine airplanes: 2
Ultralights: 1
    

Instrument Procedures

There are no published instrument procedures at AL93.

Some nearby airports with instrument procedures:

KMDQ - Huntsville Executive Airport / Tom Sharp Jr Field (8 nm E)
KHUA - Redstone Army Airfield (12 nm S)
KFYM - Fayetteville Municipal Airport (13 nm NE)
KHSV - Huntsville International Airport-Carl T Jones Field (15 nm S)
KDCU - Pryor Field Regional Airport (18 nm SW)
 
Loc | Ops | Rwys | IFR | FBO | Links
Com | Nav | Svcs | Stats | Notes

AirNav Hotels Sweepstakes
 
Area around AL93 (Big Sky Airport)
 
Road maps at: MapQuest Bing Google
 
Aerial photo
No photo
 
Sectional chart

 
Airport distance calculator
Flying to Big Sky Airport? Find the distance to fly.

From to AL93

Sunrise and sunset
Times for 20-Apr-2018
 Local
(UTC-5)
 Zulu
(UTC)
Morning civil twilight05:4310:43
Sunrise06:1011:10
Sunset19:2200:22
Evening civil twilight19:4800:48

Current date and time
Zulu (UTC)  20-Apr-2018 13:59:52
Local (UTC-5)  20-Apr-2018 08:59:52
 
METAR
KMDQ 
8nm E 
201335Z AUTO 01006KT 10SM CLR 08/01 A3038 RMK A01 T00830012
KHUA 
12nm S 
201258Z AUTO 07004KT 10SM CLR 08/01 A3036 RMK AO2 SLP284 T00770006
KFYM 
13nm NE 
201335Z AUTO 04007KT 10SM CLR 08/01 A3037 RMK A01
KHSV 
15nm S 
201353Z 07008KT 10SM FEW250 11/02 A3037 RMK AO2 SLP283 T01060017
KDCU 
18nm SW 
201353Z AUTO 04007KT 010V080 10SM CLR 09/01 A3038 RMK AO2 SLP288 T00940011
TAF
KHSV 
15nm S 
201133Z 2012/2112 05006KT P6SM SKC FM202000 07003KT P6SM FEW250 FM210800 11003KT P6SM SCT250
NOTAMs
Click for the latest NOTAMs
NOTAMs are issued by the DoD/FAA and will open in a separate window not controlled by AirNav.

 

 
 

Would you like to see your business listed on this page?

 If your business provides an interesting product or service to pilots, flight crews, aircraft, or users of the Big Sky Airport, you should consider listing it here.  To start the listing process, click on the button below
 
Add a business
 

Other Pages about Big Sky Airport

Update a link
 
Copyright © AirNav, LLC. All rights reserved. Privacy Policy  Contact